Waukegan, IL

10:53 PM CDT on April 22, 2018 (GMT -0500)
Waukegan Regional

Weather History for KUGN - January, 2013

Change the Weather History Date:

Monday, January 21, 2013

  Actual Average Record
Temperature  
Mean Temperature 7 °F 22 °F  
Max Temperature 13 °F 30 °F 58 °F (2017)
Min Temperature 1 °F 15 °F -7 °F (2011)
Degree Days  
Heating Degree Days 58 43  
Month to date heating degree days 816 876  
Since 1 July heating degree days 3195 3425  
Cooling Degree Days 0 0  
Month to date cooling degree days 0 0  
Year to date cooling degree days 0 0  
Moisture  
Dew Point -3 °F    
Average Humidity 61    
Maximum Humidity 73    
Minimum Humidity 49    
Precipitation  
Precipitation T in 0.04 in 0.50 in (2006)
Month to date precipitation 0.85 0.90  
Year to date precipitation 0.85 0.90  
Sea Level Pressure  
Sea Level Pressure 30.20 in    
Wind  
Wind Speed 10 mph (WNW)    
Max Wind Speed 20 mph    
Max Gust Speed 28 mph    
Visibility 8 miles    
Events Snow    
T = Trace of Precipitation, MM = Missing Value Source: NWS Daily Summary

Daily Weather History Graph

Daily Weather History Graph

Search for Another Location

Airport or City:

Astronomy

Jan. 21, 2013 Rise Set
Actual Time 7:14 AM CST 4:51 PM CST
Civil Twilight 6:43 AM CST 5:22 PM CST
Nautical Twilight 6:09 AM CST 5:56 PM CST
Astronomical Twilight 5:36 AM CST 6:30 PM CST
Moon 12:30 PM CST (1/21) 2:42 AM CST (1/21)
Length of Visible Light 10h 38m
Length of Day
9h 37m
Waxing Gibbous, 75% of the Moon is Illuminated
Jan 21
Waxing Gibbous
Jan 26
Full
Feb 3
Last Quarter
Feb 10
New
Feb 17
First Quarter

Hourly Weather History & Observations

Time (CST) Temp. Windchill Dew Point Humidity Pressure Visibility Wind Dir Wind Speed Gust Speed Precip Events Conditions
12:52 AM 12.9 °F 5.2 °F 1.0 °F 59% 30.21 in 10.0 mi West 4.6 mph - N/A   Overcast
1:52 AM 12.0 °F 2.7 °F 3.0 °F 67% 30.21 in 9.0 mi West 5.8 mph - N/A   Overcast
2:07 AM 12.2 °F 1.7 °F 3.2 °F 67% 30.14 in 10.0 mi West 6.9 mph - N/A   Overcast
2:52 AM 10.9 °F 2.9 °F -0.0 °F 61% 30.20 in 10.0 mi Variable 4.6 mph - 0.00 in   Overcast
3:52 AM 10.9 °F 0.2 °F 1.0 °F 64% 30.18 in 10.0 mi Variable 6.9 mph - N/A   Overcast
4:25 AM 10.4 °F -0.4 °F 3.2 °F 73% 30.10 in 2.5 mi West 6.9 mph 18.4 mph 0.00 in Snow Light Snow
4:33 AM 10.4 °F -0.4 °F 3.2 °F 73% 30.10 in 1.8 mi Variable 6.9 mph - 0.00 in Snow Light Snow
4:37 AM 8.6 °F -1.3 °F 3.2 °F 79% 30.10 in 3.0 mi West 5.8 mph - 0.00 in Snow Light Snow
4:45 AM 8.6 °F -1.3 °F 3.2 °F 79% 30.10 in 9.0 mi West 5.8 mph - 0.00 in   Scattered Clouds
4:52 AM 9.0 °F -2.2 °F 1.9 °F 73% 30.17 in 10.0 mi West 6.9 mph - 0.00 in   Partly Cloudy
5:52 AM 9.0 °F -4.2 °F -0.0 °F 67% 30.17 in 10.0 mi WNW 9.2 mph - N/A   Mostly Cloudy
6:52 AM 7.0 °F -5.7 °F -4.0 °F 61% 30.18 in 10.0 mi WNW 8.1 mph 17.3 mph 0.00 in   Partly Cloudy
7:52 AM 8.1 °F -5.3 °F -2.9 °F 61% 30.19 in 8.0 mi WNW 9.2 mph 20.7 mph N/A   Overcast
8:30 AM 8.6 °F -6.3 °F -2.2 °F 62% 30.12 in 2.5 mi West 11.5 mph 21.9 mph 0.00 in Snow Light Snow
8:43 AM 8.6 °F -3.7 °F -0.4 °F 67% 30.12 in 3.0 mi West 8.1 mph 17.3 mph 0.00 in Snow Light Snow
8:52 AM 8.1 °F -6.2 °F 1.0 °F 73% 30.21 in 3.0 mi WNW 10.4 mph 18.4 mph 0.00 in Snow Light Snow
9:08 AM 8.6 °F -1.3 °F -0.4 °F 67% 30.13 in 3.0 mi West 5.8 mph 18.4 mph 0.00 in   Haze
9:12 AM 8.6 °F -4.7 °F -0.4 °F 67% 30.13 in 1.8 mi West 9.2 mph 18.4 mph 0.00 in Snow Light Snow
9:23 AM 6.8 °F -10.7 °F -2.2 °F 67% 30.14 in 3.0 mi WNW 15.0 mph 24.2 mph 0.00 in Snow Light Snow
9:52 AM 8.1 °F -9.0 °F -2.0 °F 64% 30.22 in 6.0 mi WNW 15.0 mph 23.0 mph 0.00 in   Haze
10:52 AM 8.1 °F -8.4 °F -5.1 °F 55% 30.23 in 9.0 mi West 13.8 mph 19.6 mph N/A   Overcast
11:52 AM 8.1 °F -7.7 °F -8.0 °F 48% 30.21 in 10.0 mi WNW 12.7 mph 26.5 mph N/A   Overcast
12:52 PM 9.0 °F -8.5 °F -8.0 °F 46% 30.20 in 10.0 mi WNW 16.1 mph 23.0 mph N/A   Partly Cloudy
1:52 PM 9.0 °F -8.5 °F -8.0 °F 46% 30.21 in 10.0 mi West 16.1 mph 25.3 mph N/A   Partly Cloudy
2:52 PM 9.0 °F -5.1 °F -8.0 °F 46% 30.22 in 10.0 mi West 10.4 mph 23.0 mph N/A   Mostly Cloudy
3:52 PM 8.1 °F -7.7 °F -7.1 °F 50% 30.23 in 10.0 mi West 12.7 mph 20.7 mph N/A   Scattered Clouds
4:52 PM 6.1 °F -7.8 °F -9.0 °F 50% 30.24 in 10.0 mi WNW 9.2 mph 19.6 mph N/A   Scattered Clouds
5:52 PM 5.0 °F -8.1 °F -8.0 °F 55% 30.26 in 10.0 mi West 8.1 mph - N/A   Clear
6:52 PM 3.9 °F -11.3 °F -8.0 °F 58% 30.27 in 10.0 mi West 10.4 mph 18.4 mph N/A   Scattered Clouds
7:52 PM 3.9 °F -9.4 °F -9.0 °F 55% 30.29 in 10.0 mi West 8.1 mph 18.4 mph N/A   Clear
8:52 PM 3.0 °F -13.3 °F -9.9 °F 55% 30.31 in 10.0 mi WNW 11.5 mph - N/A   Clear
9:20 PM 3.2 °F -10.3 °F -9.4 °F 56% 30.22 in 10.0 mi WNW 8.1 mph - N/A   Mostly Cloudy
10:01 PM 1.4 °F -12.5 °F -9.4 °F 61% 30.23 in 10.0 mi WNW 8.1 mph - N/A   Mostly Cloudy
10:25 PM 1.4 °F -11.3 °F -7.6 °F 66% 30.23 in 10.0 mi WNW 6.9 mph 18.4 mph N/A   Overcast
10:52 PM 1.9 °F -10.6 °F -7.1 °F 66% 30.32 in 5.0 mi WNW 6.9 mph 16.1 mph N/A   Haze
11:52 PM 1.0 °F -6.7 °F -6.0 °F 72% 30.32 in 7.0 mi Variable 3.5 mph - 0.00 in   Overcast